O3B FM20 1 44112U 19020A 21112.44206973 -.00000017 00000-0 00000-0 0 9995 2 44112 0.0516 11.0475 0002890 10.2153 338.7505 5.00115617 37439 O3B FM19 1 44113U 19020B 21112.62932642 -.00000016 00000-0 00000+0 0 9993 2 44113 0.0614 10.3491 0002066 353.4248 356.2290 5.00115532 37501 O3B FM17 1 44114U 19020C 21112.74912304 -.00000016 00000-0 00000-0 0 9991 2 44114 0.0368 28.5259 0002684 357.6339 333.8550 5.00115109 37391 O3B FM18 1 44115U 19020D 21112.09628830 -.00000017 00000-0 00000-0 0 9999 2 44115 0.0520 10.9036 0002693 19.9668 329.1468 5.00115515 37491 FREGAT R/B 1 44116U 19020E 21112.88575994 -.00000013 00000-0 00000+0 0 9994 2 44116 0.0427 277.2810 0009330 97.6560 345.0917 5.21008243 38955